Total_Precipitation_Accumulation
0.70 0.73 0.78 0.82 0.79 0.80 0.85 0.91 1.02 1.09 0.98 0.81 0.77 0.76 0.73 0.70 0.77 0.64 0.68 0.78 0.74 0.70 0.67 0.64 0.64 0.64 0.63 0.63 0.64 0.67 0.72 0.78 0.81 0.87 0.97 1.07 1.18 1.32
0.48 0.50 0.54 0.57 0.59 0.60 0.66 0.73 0.82 0.92 0.95 0.75 0.65 0.64 0.60 0.53 0.62 0.55 0.59 0.61 0.56 0.53 0.50 0.48 0.47 0.48 0.48 0.49 0.51 0.52 0.53 0.57 0.62 0.68 0.74 0.83 0.94 1.08
0.38 0.39 0.42 0.45 0.49 0.47 0.49 0.54 0.61 0.69 0.79 0.71 0.57 0.54 0.53 0.52 0.53 0.51 0.47 0.43 0.41 0.41 0.38 0.39 0.37 0.36 0.37 0.38 0.38 0.41 0.42 0.44 0.47 0.51 0.55 0.62 0.72 0.83
0.36 0.35 0.36 0.39 0.43 0.40 0.42 0.44 0.48 0.55 0.66 0.70 0.60 0.51 0.47 0.46 0.46 0.44 0.34 0.31 0.33 0.35 0.32 0.31 0.31 0.32 0.33 0.32 0.31 0.30 0.28 0.27 0.28 0.30 0.35 0.44 0.54 0.64
0.30 0.29 0.31 0.33 0.36 0.33 0.35 0.36 0.39 0.43 0.52 0.57 0.50 0.43 0.37 0.34 0.40 0.40 0.35 0.40 0.27 0.23 0.22 0.21 0.22 0.22 0.21 0.21 0.20 0.19 0.15 0.13 0.12 0.15 0.24 0.32 0.41 0.50
0.22 0.24 0.27 0.27 0.27 0.30 0.30 0.33 0.37 0.43 0.47 0.48 0.43 0.36 0.34 0.31 0.42 0.50 0.47 0.39 0.30 0.18 0.18 0.16 0.16 0.15 0.17 0.20 0.16 0.15 0.13 0.11 0.13 0.18 0.24 0.26 0.31 0.35
0.20 0.19 0.20 0.21 0.24 0.26 0.28 0.32 0.38 0.46 0.48 0.51 0.47 0.42 0.39 0.45 0.52 0.51 0.48 0.37 0.30 0.23 0.26 0.24 0.28 0.43 0.62 0.67 0.46 0.24 0.17 0.14 0.16 0.24 0.31 0.31 0.30 0.29
0.22 0.19 0.17 0.16 0.17 0.19 0.22 0.27 0.36 0.46 0.53 0.60 0.57 0.55 0.50 0.56 0.62 0.60 0.61 0.57 0.49 0.32 0.33 0.32 0.41 0.78 1.15 1.35 0.94 0.42 0.28 0.24 0.20 0.25 0.30 0.30 0.29 0.26
0.26 0.25 0.20 0.18 0.23 0.26 0.23 0.20 0.26 0.34 0.49 0.66 0.73 0.67 0.64 0.69 0.78 0.76 0.72 0.71 0.64 0.45 0.49 0.52 0.58 0.89 0.98 1.09 1.04 0.66 0.51 0.42 0.34 0.34 0.35 0.34 0.29 0.26
0.23 0.24 0.29 0.30 0.25 0.23 0.21 0.24 0.33 0.44 0.52 0.57 0.67 0.64 0.59 0.63 0.75 0.78 0.72 0.66 0.61 0.55 0.60 0.70 0.67 0.82 0.81 1.08 1.27 1.12 0.93 0.75 0.61 0.55 0.50 0.45 0.38 0.32
0.17 0.18 0.22 0.27 0.22 0.21 0.25 0.34 0.43 0.51 0.44 0.53 0.60 0.66 0.71 0.68 0.64 0.66 0.79 0.83 0.81 0.65 0.59 0.68 0.75 0.82 0.93 1.24 1.32 1.32 1.23 1.04 0.85 0.69 0.59 0.50 0.43 0.41
0.21 0.23 0.21 0.19 0.21 0.22 0.29 0.40 0.51 0.53 0.60 0.77 0.93 1.00 0.94 0.85 0.70 0.72 0.88 0.94 0.95 0.88 0.66 0.67 0.78 0.91 1.19 1.37 1.34 1.24 1.23 1.19 1.05 0.91 0.75 0.56 0.39 0.39
0.26 0.32 0.32 0.23 0.23 0.20 0.26 0.38 0.50 0.57 0.80 1.12 1.18 1.07 0.93 0.83 0.73 0.69 0.74 0.82 0.91 0.94 0.71 0.74 0.87 1.01 1.21 1.33 1.30 1.24 1.15 1.12 1.11 1.16 1.07 0.78 0.50 0.42
0.34 0.34 0.32 0.29 0.25 0.25 0.31 0.47 0.54 0.72 1.00 1.20 1.12 0.93 0.76 0.65 0.58 0.52 0.55 0.61 0.70 0.72 0.66 0.71 0.92 1.10 1.20 1.18 1.18 1.11 1.09 1.15 1.20 1.25 1.25 1.06 0.79 0.64
0.29 0.33 0.33 0.31 0.34 0.48 0.55 0.65 0.73 0.91 1.08 1.06 0.92 0.80 0.67 0.56 0.50 0.49 0.47 0.51 0.52 0.48 0.44 0.53 0.78 0.97 1.14 1.12 1.09 1.01 1.06 1.27 1.38 1.39 1.32 1.17 1.02 0.86
0.28 0.40 0.49 0.53 0.57 0.68 0.75 0.84 0.91 0.98 0.93 0.82 0.72 0.66 0.57 0.51 0.49 0.45 0.45 0.47 0.50 0.48 0.42 0.45 0.57 0.76 0.97 1.00 1.04 1.06 1.06 1.41 1.57 1.48 1.40 1.35 1.19 1.03
0.28 0.44 0.62 0.68 0.72 0.78 0.78 0.82 0.84 0.81 0.79 0.73 0.67 0.59 0.52 0.49 0.47 0.44 0.46 0.43 0.46 0.49 0.50 0.48 0.51 0.57 0.66 0.75 0.90 1.02 1.11 1.31 1.45 1.38 1.27 1.35 1.34 1.15
0.33 0.52 0.68 0.71 0.73 0.74 0.71 0.70 0.71 0.67 0.63 0.62 0.61 0.57 0.52 0.49 0.47 0.44 0.43 0.43 0.46 0.46 0.46 0.43 0.41 0.43 0.47 0.57 0.79 0.93 1.00 1.20 1.27 1.16 0.98 1.05 1.23 1.10
0.33 0.53 0.69 0.79 0.79 0.72 0.65 0.63 0.67 0.68 0.65 0.62 0.57 0.54 0.48 0.43 0.42 0.40 0.38 0.37 0.39 0.40 0.37 0.30 0.28 0.29 0.35 0.57 0.82 1.03 1.02 1.03 0.98 0.92 0.82 0.78 0.96 0.97
0.38 0.52 0.64 0.69 0.70 0.70 0.65 0.62 0.65 0.67 0.64 0.57 0.52 0.49 0.43 0.39 0.36 0.38 0.35 0.29 0.29 0.29 0.28 0.25 0.24 0.25 0.33 0.49 0.82 1.06 0.99 0.74 0.63 0.67 0.66 0.65 0.81 0.85
0.37 0.45 0.53 0.54 0.52 0.52 0.51 0.51 0.55 0.59 0.54 0.46 0.42 0.42 0.39 0.34 0.34 0.34 0.29 0.20 0.21 0.22 0.25 0.30 0.30 0.25 0.22 0.27 0.54 0.80 0.85 0.80 0.57 0.44 0.41 0.45 0.48 0.44
0.29 0.37 0.43 0.41 0.38 0.37 0.34 0.34 0.37 0.39 0.37 0.34 0.33 0.32 0.32 0.31 0.29 0.26 0.24 0.21 0.20 0.20 0.24 0.26 0.24 0.20 0.23 0.29 0.46 0.65 0.69 0.61 0.54 0.52 0.47 0.33 0.26 0.32
0.24 0.26 0.30 0.33 0.32 0.29 0.26 0.23 0.24 0.25 0.26 0.27 0.27 0.28 0.28 0.27 0.23 0.19 0.16 0.13 0.13 0.14 0.15 0.17 0.17 0.15 0.16 0.19 0.24 0.32 0.35 0.32 0.27 0.31 0.46 0.48 0.38 0.42